| time (UTC) | temp C | wind direction | speed KPH | gust KPH | rain 1hr cm | rain 24hr cm | rain mn cm | humidity % | barometer mb |
| 20260906204602 | 22 | 48 | 0.0 | 0.0 | 0.00 | 0.03 | 0.03 | 91 | 1016.1 |
| 20260906204057 | 22 | 47 | 0.0 | 0.0 | 0.00 | 0.03 | 0.03 | 90 | 1016.1 |
| 20260906203556 | 22 | 105 | 1.6 | 9.7 | 0.00 | 0.03 | 0.03 | 90 | 1016.1 |
| 20260906203051 | 23 | 39 | 1.6 | 11.3 | 0.00 | 0.03 | 0.03 | 90 | 1016.1 |
| 20260906202548 | 23 | 28 | 0.0 | 11.3 | 0.00 | 0.03 | 0.03 | 90 | 1016.1 |
| 20260906202048 | 23 | 55 | 0.0 | 0.0 | 0.00 | 0.03 | 0.03 | 90 | 1015.6 |
| 20260906201547 | 23 | 23 | 0.0 | 0.0 | 0.00 | 0.03 | 0.03 | 90 | 1015.6 |
| 20260906201042 | 23 | 56 | 0.0 | 6.4 | 0.00 | 0.03 | 0.03 | 90 | 1015.6 |
| 20260906200538 | 22 | 45 | 0.0 | 6.4 | 0.00 | 0.03 | 0.03 | 90 | 1015.6 |
| 20260906200034 | 22 | 42 | 0.0 | 0.0 | 0.00 | 0.03 | 0.03 | 90 | 1015.6 |
| 20260906195529 | 22 | 25 | 0.0 | 9.7 | 0.00 | 0.03 | 0.03 | 90 | 1015.6 |
| 20260906195025 | 22 | 34 | 1.6 | 11.3 | 0.00 | 0.03 | 0.03 | 90 | 1015.3 |
| 20260906194521 | 23 | 34 | 1.6 | 11.3 | 0.00 | 0.03 | 0.03 | 90 | 1015.3 |
| 20260906194017 | 23 | 36 | 1.6 | 9.7 | 0.00 | 0.03 | 0.03 | 90 | 1015.3 |
| 20260906193516 | 23 | 41 | 0.0 | 11.3 | 0.00 | 0.03 | 0.03 | 89 | 1015.3 |
| 20260906193011 | 23 | 49 | 0.0 | 11.3 | 0.00 | 0.03 | 0.03 | 89 | 1015.0 |
| 20260906192507 | 23 | 38 | 1.6 | 11.3 | 0.00 | 0.03 | 0.03 | 89 | 1015.0 |
| 20260906192005 | 23 | 22 | 1.6 | 11.3 | 0.00 | 0.03 | 0.03 | 88 | 1015.0 |
| 20260906191501 | 23 | 33 | 0.0 | 9.7 | 0.00 | 0.03 | 0.03 | 88 | 1015.0 |
| 20260906191000 | 23 | 34 | 0.0 | 9.7 | 0.00 | 0.03 | 0.03 | 88 | 1015.0 |
| 20260906190459 | 23 | 20 | 0.0 | 12.9 | 0.00 | 0.03 | 0.03 | 88 | 1015.0 |
| 20260906185954 | 23 | 30 | 0.0 | 12.9 | 0.00 | 0.03 | 0.03 | 87 | 1015.0 |
| 20260906185453 | 23 | 41 | 0.0 | 9.7 | 0.00 | 0.03 | 0.03 | 87 | 1015.0 |
| 20260906184952 | 23 | 11 | 0.0 | 9.7 | 0.00 | 0.03 | 0.03 | 88 | 1015.0 |
| 20260906184448 | 23 | 20 | 0.0 | 11.3 | 0.00 | 0.03 | 0.03 | 88 | 1015.0 |
| 20260906183943 | 23 | 34 | 0.0 | 11.3 | 0.00 | 0.03 | 0.03 | 89 | 1015.0 |
| 20260906183438 | 23 | 29 | 0.0 | 11.3 | 0.00 | 0.03 | 0.03 | 88 | 1015.0 |
| 20260906182934 | 23 | 11 | 1.6 | 11.3 | 0.00 | 0.03 | 0.03 | 88 | 1015.3 |
| 20260906182430 | 23 | 29 | 1.6 | 9.7 | 0.00 | 0.03 | 0.03 | 88 | 1015.3 |
| 20260906181925 | 23 | 27 | 1.6 | 9.7 | 0.00 | 0.03 | 0.03 | 87 | 1015.3 |
| 20260906181420 | 24 | 18 | 0.0 | 4.8 | 0.00 | 0.03 | 0.03 | 87 | 1015.3 |
| 20260906180916 | 24 | 14 | 0.0 | 3.2 | 0.00 | 0.03 | 0.03 | 89 | 1015.3 |
| 20260906180405 | 23 | 15 | 0.0 | 0.0 | 0.00 | 0.03 | 0.03 | 89 | 1015.3 |
| 20260906175903 | 23 | 344 | 0.0 | 0.0 | 0.00 | 0.03 | 0.03 | 90 | 1015.3 |
| 20260906175359 | 23 | 9 | 0.0 | 6.4 | 0.00 | 0.03 | 0.03 | 90 | 1015.6 |
| 20260906174857 | 23 | 44 | 0.0 | 6.4 | 0.00 | 0.03 | 0.03 | 91 | 1015.6 |
| 20260906174356 | 23 | 18 | 0.0 | 1.6 | 0.00 | 0.03 | 0.03 | 91 | 1015.6 |
| 20260906173851 | 23 | 21 | 0.0 | 8.0 | 0.00 | 0.03 | 0.03 | 92 | 1016.1 |
| 20260906173347 | 23 | 21 | 0.0 | 8.0 | 0.00 | 0.03 | 0.03 | 92 | 1016.1 |
| 20260906172846 | 23 | 41 | 0.0 | 3.2 | 0.00 | 0.03 | 0.03 | 92 | 1016.1 |
| 20260906172342 | 22 | 26 | 0.0 | 3.2 | 0.00 | 0.03 | 0.03 | 92 | 1016.1 |
| 20260906171837 | 22 | 334 | 0.0 | 6.4 | 0.00 | 0.03 | 0.03 | 93 | 1016.1 |
| 20260906171332 | 22 | 8 | 0.0 | 6.4 | 0.00 | 0.03 | 0.03 | 93 | 1016.1 |
| 20260906170828 | 22 | 21 | 0.0 | 3.2 | 0.00 | 0.03 | 0.03 | 93 | 1015.6 |
| 20260906170323 | 22 | 333 | 0.0 | 0.0 | 0.00 | 0.03 | 0.03 | 93 | 1015.6 |
| 20260906165820 | 22 | 11 | 0.0 | 0.0 | 0.00 | 0.03 | 0.03 | 93 | 1015.6 |
| 20260906165313 | 22 | 17 | 0.0 | 0.0 | 0.00 | 0.03 | 0.03 | 93 | 1015.6 |
| 20260906164814 | 22 | 1 | 0.0 | 0.0 | 0.00 | 0.03 | 0.03 | 94 | 1015.6 |
| 20260906164308 | 22 | 350 | 0.0 | 0.0 | 0.00 | 0.03 | 0.03 | 94 | 1015.6 |
| 20260906163804 | 22 | 354 | 0.0 | 0.0 | 0.00 | 0.03 | 0.03 | 94 | 1015.6 |
| 20260906163301 | 22 | 23 | 0.0 | 0.0 | 0.00 | 0.03 | 0.03 | 94 | 1015.6 |
| 20260906162757 | 22 | 10 | 0.0 | 0.0 | 0.00 | 0.03 | 0.03 | 94 | 1015.6 |
| 20260906162251 | 21 | 326 | 0.0 | 0.0 | 0.00 | 0.03 | 0.03 | 94 | 1015.6 |
| 20260906161746 | 21 | 330 | 0.0 | 0.0 | 0.00 | 0.03 | 0.03 | 94 | 1015.6 |
| 20260906161245 | 21 | 326 | 0.0 | 1.6 | 0.00 | 0.03 | 0.03 | 94 | 1016.1 |
| 20260906160744 | 21 | 333 | 0.0 | 1.6 | 0.00 | 0.03 | 0.03 | 94 | 1016.1 |
| 20260906160243 | 21 | 19 | 0.0 | 1.6 | 0.00 | 0.03 | 0.03 | 94 | 1016.1 |
| 20260906155741 | 21 | 19 | 0.0 | 0.0 | 0.00 | 0.03 | 0.03 | 94 | 1016.4 |
| 20260906155236 | 21 | 18 | 0.0 | 0.0 | 0.00 | 0.03 | 0.03 | 94 | 1016.4 |
| 20260906154732 | 21 | 19 | 0.0 | 0.0 | 0.00 | 0.03 | 0.03 | 94 | 1016.4 |
| 20260906154226 | 21 | 34 | 0.0 | 0.0 | 0.00 | 0.03 | 0.03 | 93 | 1016.4 |
| 20260906153724 | 21 | 34 | 0.0 | 0.0 | 0.00 | 0.03 | 0.03 | 93 | 1016.4 |
| 20260906153219 | 20 | 34 | 0.0 | 0.0 | 0.00 | 0.03 | 0.03 | 94 | 1016.7 |
| 20260906152714 | 20 | 37 | 0.0 | 0.0 | 0.00 | 0.03 | 0.03 | 94 | 1016.7 |
| 20260906152210 | 20 | 35 | 0.0 | 0.0 | 0.00 | 0.03 | 0.03 | 94 | 1016.7 |
| 20260906151703 | 20 | 37 | 0.0 | 0.0 | 0.00 | 0.03 | 0.03 | 94 | 1016.7 |
| 20260906151200 | 20 | 26 | 0.0 | 0.0 | 0.00 | 0.03 | 0.03 | 94 | 1016.7 |
| 20260906150654 | 20 | 323 | 0.0 | 0.0 | 0.00 | 0.03 | 0.03 | 94 | 1016.7 |
| 20260906150149 | 20 | 323 | 0.0 | 0.0 | 0.00 | 0.03 | 0.03 | 94 | 1016.7 |
| 20260906145648 | 20 | 323 | 0.0 | 0.0 | 0.00 | 0.03 | 0.03 | 94 | 1016.7 |
| 20260906145143 | 20 | 322 | 0.0 | 0.0 | 0.00 | 0.03 | 0.03 | 94 | 1016.7 |
| 20260906144637 | 20 | 322 | 0.0 | 0.0 | 0.00 | 0.03 | 0.03 | 94 | 1016.7 |
| 20260906144132 | 20 | 322 | 0.0 | 0.0 | 0.00 | 0.03 | 0.03 | 94 | 1017.1 |
| 20260906143632 | 20 | 322 | 0.0 | 0.0 | 0.00 | 0.03 | 0.03 | 94 | 1017.1 |
| 20260906143129 | 20 | 321 | 0.0 | 0.0 | 0.00 | 0.03 | 0.03 | 94 | 1016.7 |
| 20260906142628 | 20 | 322 | 0.0 | 0.0 | 0.00 | 0.03 | 0.03 | 93 | 1016.7 |
| 20260906142124 | 20 | 322 | 0.0 | 0.0 | 0.00 | 0.03 | 0.03 | 93 | 1016.7 |
| 20260906141622 | 19 | 322 | 0.0 | 0.0 | 0.00 | 0.03 | 0.03 | 93 | 1016.7 |
| 20260906141118 | 19 | 321 | 0.0 | 0.0 | 0.00 | 0.03 | 0.03 | 92 | 1016.7 |
| 20260906140617 | 18 | 322 | 0.0 | 0.0 | 0.00 | 0.03 | 0.03 | 92 | 1016.7 |
| 20260906140112 | 18 | 321 | 0.0 | 0.0 | 0.00 | 0.03 | 0.03 | 92 | 1016.7 |
| 20260906135609 | 18 | 322 | 0.0 | 0.0 | 0.00 | 0.03 | 0.03 | 92 | 1016.7 |
| 20260906135105 | 18 | 322 | 0.0 | 0.0 | 0.00 | 0.03 | 0.03 | 92 | 1016.7 |
| 20260906134600 | 18 | 321 | 0.0 | 0.0 | 0.00 | 0.03 | 0.03 | 92 | 1017.1 |
| 20260906134101 | 18 | 322 | 0.0 | 0.0 | 0.00 | 0.03 | 0.03 | 92 | 1017.1 |
| 20260906133556 | 18 | 322 | 0.0 | 0.0 | 0.00 | 0.03 | 0.03 | 92 | 1017.1 |
| 20260906133051 | 18 | 321 | 0.0 | 0.0 | 0.00 | 0.03 | 0.03 | 92 | 1016.7 |
| 20260906132546 | 17 | 321 | 0.0 | 0.0 | 0.00 | 0.03 | 0.03 | 92 | 1016.7 |
| 20260906132042 | 17 | 322 | 0.0 | 0.0 | 0.00 | 0.03 | 0.03 | 92 | 1016.7 |
| 20260906131537 | 17 | 322 | 0.0 | 0.0 | 0.00 | 0.03 | 0.03 | 92 | 1016.7 |
| 20260906131032 | 17 | 321 | 0.0 | 0.0 | 0.00 | 0.03 | 0.03 | 92 | 1016.7 |
| 20260906130531 | 17 | 321 | 0.0 | 0.0 | 0.00 | 0.03 | 0.03 | 92 | 1016.7 |
| 20260906130027 | 17 | 322 | 0.0 | 0.0 | 0.00 | 0.03 | 0.03 | 92 | 1016.7 |
| 20260906125524 | 17 | 321 | 0.0 | 0.0 | 0.00 | 0.03 | 0.03 | 92 | 1016.7 |
| 20260906125019 | 16 | 321 | 0.0 | 0.0 | 0.00 | 0.03 | 0.03 | 92 | 1016.7 |
| 20260906124514 | 16 | 321 | 0.0 | 0.0 | 0.00 | 0.03 | 0.03 | 92 | 1016.7 |
| 20260906124009 | 16 | 322 | 0.0 | 0.0 | 0.00 | 0.03 | 0.03 | 93 | 1016.7 |
| 20260906123502 | 16 | 324 | 0.0 | 0.0 | 0.00 | 0.03 | 0.03 | 93 | 1016.4 |
| 20260906122956 | 16 | 320 | 0.0 | 0.0 | 0.00 | 0.03 | 0.03 | 93 | 1016.4 |
| 20260906122451 | 16 | 319 | 0.0 | 0.0 | 0.00 | 0.03 | 0.03 | 93 | 1016.4 |
| 20260906121948 | 16 | 25 | 0.0 | 0.0 | 0.00 | 0.03 | 0.03 | 94 | 1016.4 |
| 20260906121444 | 16 | 79 | 0.0 | 0.0 | 0.00 | 0.03 | 0.03 | 94 | 1016.4 |
| 20260906120940 | 16 | 91 | 0.0 | 0.0 | 0.00 | 0.03 | 0.03 | 93 | 1016.4 |
| 20260906120436 | 17 | 91 | 0.0 | 0.0 | 0.00 | 0.03 | 0.03 | 92 | 1016.1 |
| 20260906115931 | 17 | 91 | 0.0 | 0.0 | 0.00 | 0.03 | 0.03 | 92 | 1016.1 |
| 20260906115427 | 16 | 91 | 0.0 | 0.0 | 0.00 | 0.03 | 0.03 | 93 | 1016.1 |
| 20260906114926 | 16 | 91 | 0.0 | 0.0 | 0.00 | 0.03 | 0.03 | 94 | 1016.1 |
| 20260906114421 | 16 | 91 | 0.0 | 0.0 | 0.00 | 0.03 | 0.03 | 94 | 1016.1 |
| 20260906113917 | 16 | 91 | 0.0 | 0.0 | 0.00 | 0.03 | 0.03 | 94 | 1016.1 |
| 20260906113415 | 16 | 91 | 0.0 | 0.0 | 0.00 | 0.03 | 0.03 | 94 | 1016.1 |
| 20260906112911 | 16 | 91 | 0.0 | 0.0 | 0.00 | 0.03 | 0.03 | 94 | 1016.1 |
| 20260906112407 | 16 | 91 | 0.0 | 0.0 | 0.00 | 0.03 | 0.03 | 94 | 1016.1 |
| 20260906111902 | 17 | 91 | 0.0 | 0.0 | 0.00 | 0.03 | 0.03 | 94 | 1016.1 |
| 20260906111401 | 17 | 91 | 0.0 | 0.0 | 0.00 | 0.03 | 0.03 | 94 | 1016.1 |
| 20260906110856 | 17 | 91 | 0.0 | 0.0 | 0.00 | 0.03 | 0.03 | 94 | 1016.1 |
| 20260906110352 | 17 | 68 | 0.0 | 0.0 | 0.00 | 0.03 | 0.03 | 94 | 1016.1 |
| 20260906105850 | 17 | 68 | 0.0 | 0.0 | 0.00 | 0.03 | 0.03 | 94 | 1016.1 |
| 20260906105347 | 17 | 68 | 0.0 | 0.0 | 0.00 | 0.03 | 0.03 | 94 | 1016.4 |
| 20260906104842 | 17 | 68 | 0.0 | 0.0 | 0.00 | 0.03 | 0.03 | 94 | 1016.4 |
| 20260906104341 | 17 | 68 | 0.0 | 0.0 | 0.00 | 0.03 | 0.03 | 94 | 1016.4 |
| 20260906103839 | 17 | 68 | 0.0 | 0.0 | 0.00 | 0.03 | 0.03 | 94 | 1016.1 |
| 20260906103338 | 17 | 68 | 0.0 | 0.0 | 0.00 | 0.03 | 0.03 | 94 | 1016.1 |
| 20260906102834 | 17 | 68 | 0.0 | 0.0 | 0.00 | 0.03 | 0.03 | 94 | 1016.1 |
| 20260906102333 | 17 | 68 | 0.0 | 0.0 | 0.00 | 0.03 | 0.03 | 94 | 1016.1 |
| 20260906101828 | 18 | 68 | 0.0 | 0.0 | 0.00 | 0.03 | 0.03 | 94 | 1016.1 |
| 20260906101323 | 18 | 68 | 0.0 | 0.0 | 0.00 | 0.03 | 0.03 | 94 | 1016.1 |
| 20260906100819 | 18 | 68 | 0.0 | 0.0 | 0.00 | 0.03 | 0.03 | 94 | 1016.1 |
| 20260906100318 | 18 | 68 | 0.0 | 0.0 | 0.00 | 0.03 | 0.03 | 94 | 1016.1 |
| 20260906095813 | 18 | 61 | 0.0 | 4.8 | 0.00 | 0.03 | 0.03 | 94 | 1016.1 |
| 20260906095308 | 18 | 63 | 0.0 | 6.4 | 0.00 | 0.03 | 0.03 | 94 | 1016.1 |
| 20260906094802 | 18 | 46 | 0.0 | 6.4 | 0.00 | 0.03 | 0.03 | 94 | 1016.1 |
| 20260906094257 | 18 | 62 | 0.0 | 6.4 | 0.00 | 0.03 | 0.03 | 94 | 1016.1 |
| 20260906093753 | 18 | 48 | 0.0 | 6.4 | 0.00 | 0.03 | 0.03 | 94 | 1016.1 |
| 20260906093249 | 18 | 84 | 0.0 | 3.2 | 0.00 | 0.03 | 0.03 | 94 | 1015.6 |
| 20260906092743 | 18 | 90 | 0.0 | 6.4 | 0.00 | 0.03 | 0.03 | 94 | 1015.6 |
| 20260906092238 | 18 | 52 | 0.0 | 6.4 | 0.00 | 0.03 | 0.03 | 94 | 1015.6 |
| 20260906091734 | 18 | 58 | 0.0 | 0.0 | 0.00 | 0.03 | 0.03 | 94 | 1015.6 |
| 20260906091230 | 18 | 72 | 0.0 | 0.0 | 0.00 | 0.03 | 0.03 | 94 | 1015.6 |
| 20260906090726 | 18 | 60 | 0.0 | 0.0 | 0.00 | 0.03 | 0.03 | 94 | 1015.6 |
| 20260906090225 | 18 | 59 | 0.0 | 0.0 | 0.00 | 0.03 | 0.03 | 93 | 1015.6 |
| 20260906085724 | 18 | 70 | 0.0 | 0.0 | 0.00 | 0.03 | 0.03 | 93 | 1015.6 |
| 20260906085223 | 18 | 75 | 0.0 | 0.0 | 0.00 | 0.03 | 0.03 | 93 | 1015.3 |
| 20260906084718 | 18 | 72 | 0.0 | 0.0 | 0.00 | 0.03 | 0.03 | 93 | 1015.3 |
| 20260906084213 | 18 | 79 | 0.0 | 9.7 | 0.00 | 0.03 | 0.03 | 93 | 1015.3 |
| 20260906083708 | 18 | 91 | 1.6 | 11.3 | 0.00 | 0.03 | 0.03 | 93 | 1015.3 |
| 20260906083203 | 18 | 87 | 0.0 | 11.3 | 0.00 | 0.03 | 0.03 | 94 | 1015.3 |
| 20260906082658 | 18 | 89 | 0.0 | 11.3 | 0.00 | 0.03 | 0.03 | 94 | 1015.3 |
| 20260906082153 | 18 | 101 | 0.0 | 6.4 | 0.00 | 0.03 | 0.03 | 94 | 1015.3 |
| 20260906081644 | 18 | 86 | 0.0 | 6.4 | 0.00 | 0.03 | 0.03 | 94 | 1015.3 |
| 20260906081138 | 18 | 114 | 0.0 | 9.7 | 0.00 | 0.03 | 0.03 | 94 | 1015.3 |
| 20260906080635 | 18 | 75 | 1.6 | 19.3 | 0.00 | 0.03 | 0.03 | 94 | 1015.3 |
| 20260906080131 | 18 | 136 | 3.2 | 19.3 | 0.00 | 0.03 | 0.03 | 94 | 1015.3 |
| 20260906075630 | 18 | 127 | 3.2 | 16.1 | 0.00 | 0.03 | 0.03 | 94 | 1015.3 |
| 20260906075125 | 18 | 113 | 1.6 | 16.1 | 0.00 | 0.03 | 0.03 | 94 | 1015.6 |
| 20260906074620 | 18 | 72 | 0.0 | 9.7 | 0.00 | 0.03 | 0.03 | 94 | 1015.6 |
| 20260906074119 | 18 | 53 | 0.0 | 9.7 | 0.00 | 0.03 | 0.03 | 94 | 1016.1 |
| 20260906073614 | 18 | 94 | 0.0 | 4.8 | 0.00 | 0.03 | 0.03 | 94 | 1016.1 |
| 20260906073110 | 18 | 138 | 0.0 | 4.8 | 0.00 | 0.03 | 0.03 | 94 | 1016.1 |
| 20260906072604 | 18 | 42 | 0.0 | 4.8 | 0.00 | 0.03 | 0.03 | 94 | 1016.1 |
| 20260906072101 | 18 | 44 | 0.0 | 4.8 | 0.00 | 0.03 | 0.03 | 94 | 1016.1 |
| 20260906071557 | 18 | 46 | 0.0 | 6.4 | 0.00 | 0.03 | 0.03 | 94 | 1016.1 |
| 20260906071057 | 18 | 53 | 0.0 | 6.4 | 0.00 | 0.03 | 0.03 | 94 | 1016.1 |
| 20260906070554 | 18 | 36 | 0.0 | 1.6 | 0.00 | 0.03 | 0.03 | 94 | 1016.4 |
| 20260906070049 | 18 | 98 | 0.0 | 0.0 | 0.03 | 0.03 | 0.03 | 94 | 1016.4 |
| 20260906065548 | 18 | 86 | 0.0 | 11.3 | 0.03 | 0.03 | 0.03 | 94 | 1016.4 |
| 20260906065044 | 18 | 88 | 1.6 | 12.9 | 0.03 | 0.03 | 0.03 | 94 | 1016.4 |
| 20260906064540 | 18 | 42 | 1.6 | 14.5 | 0.03 | 0.03 | 0.03 | 94 | 1016.4 |
| 20260906064034 | 18 | 62 | 1.6 | 14.5 | 0.03 | 0.03 | 0.03 | 94 | 1016.4 |
| 20260906063530 | 18 | 30 | 1.6 | 12.9 | 0.03 | 0.03 | 0.03 | 94 | 1016.4 |
| 20260906063025 | 18 | 52 | 1.6 | 12.9 | 0.03 | 0.03 | 0.03 | 94 | 1016.4 |
| 20260906062515 | 18 | 41 | 0.0 | 0.0 | 0.03 | 0.03 | 0.03 | 94 | 1016.4 |
| 20260906062009 | 18 | 35 | 1.6 | 8.0 | 0.03 | 0.03 | 0.03 | 94 | 1016.4 |
| 20260906061505 | 18 | 56 | 1.6 | 8.0 | 0.03 | 0.03 | 0.03 | 94 | 1016.4 |
| 20260906060959 | 18 | 39 | 0.0 | 0.0 | 0.03 | 0.03 | 0.03 | 94 | 1016.4 |
| 20260906060456 | 18 | 43 | 0.0 | 0.0 | 0.00 | 0.00 | 0.00 | 94 | 1016.1 |
| 20260906055953 | 18 | 37 | 0.0 | 0.0 | 0.00 | 0.00 | 0.00 | 94 | 1016.1 |
| 20260906055448 | 18 | 39 | 0.0 | 0.0 | 0.00 | 0.00 | 0.00 | 94 | 1016.1 |
| 20260906054943 | 18 | 37 | 0.0 | 0.0 | 0.00 | 0.00 | 0.00 | 94 | 1016.4 |
| 20260906054438 | 18 | 37 | 0.0 | 0.0 | 0.00 | 0.00 | 0.00 | 94 | 1016.1 |
| 20260906053933 | 18 | 37 | 0.0 | 0.0 | 0.00 | 0.00 | 0.00 | 94 | 1016.1 |
| 20260906053429 | 18 | 37 | 0.0 | 0.0 | 0.00 | 0.00 | 0.00 | 94 | 1016.1 |
| 20260906052925 | 18 | 35 | 0.0 | 0.0 | 0.00 | 0.00 | 0.00 | 94 | 1016.1 |
| 20260906052421 | 18 | 37 | 0.0 | 0.0 | 0.00 | 0.00 | 0.00 | 94 | 1016.1 |
| 20260906051918 | 18 | 39 | 0.0 | 3.2 | 0.00 | 0.00 | 0.00 | 94 | 1016.1 |
| 20260906051412 | 18 | 47 | 0.0 | 4.8 | 0.00 | 0.00 | 0.00 | 94 | 1016.1 |
| 20260906050908 | 18 | 41 | 0.0 | 4.8 | 0.00 | 0.00 | 0.00 | 94 | 1016.1 |
| 20260906050403 | 18 | 45 | 0.0 | 0.0 | 0.00 | 0.00 | 0.00 | 94 | 1016.4 |
| 20260906045901 | 18 | 57 | 0.0 | 0.0 | 0.00 | 0.51 | 0.51 | 94 | 1016.1 |
| 20260906045401 | 18 | 52 | 0.0 | 0.0 | 0.00 | 0.51 | 0.51 | 94 | 1016.1 |
| 20260906044857 | 18 | 47 | 0.0 | 0.0 | 0.00 | 0.51 | 0.51 | 94 | 1016.1 |
| 20260906044352 | 18 | 48 | 0.0 | 0.0 | 0.00 | 0.51 | 0.51 | 94 | 1016.1 |
| 20260906043847 | 18 | 39 | 0.0 | 3.2 | 0.00 | 0.51 | 0.51 | 94 | 1016.1 |
| 20260906043344 | 18 | 39 | 0.0 | 3.2 | 0.00 | 0.51 | 0.51 | 94 | 1016.1 |
| 20260906042844 | 18 | 39 | 0.0 | 0.0 | 0.00 | 0.51 | 0.51 | 94 | 1016.1 |
| 20260906042342 | 18 | 37 | 0.0 | 0.0 | 0.00 | 0.51 | 0.51 | 94 | 1016.4 |
| 20260906041838 | 18 | 32 | 0.0 | 0.0 | 0.00 | 0.51 | 0.51 | 94 | 1016.4 |
| 20260906041334 | 18 | 32 | 0.0 | 0.0 | 0.00 | 0.51 | 0.51 | 94 | 1016.4 |
| 20260906040834 | 19 | 27 | 0.0 | 0.0 | 0.00 | 0.51 | 0.51 | 94 | 1016.4 |
| 20260906040329 | 18 | 27 | 0.0 | 0.0 | 0.00 | 0.51 | 0.51 | 94 | 1016.4 |
| 20260906035824 | 18 | 41 | 0.0 | 0.0 | 0.00 | 0.51 | 0.51 | 94 | 1016.7 |
| 20260906035325 | 18 | 39 | 0.0 | 0.0 | 0.00 | 0.51 | 0.51 | 94 | 1016.7 |
| 20260906034820 | 18 | 39 | 0.0 | 0.0 | 0.00 | 0.51 | 0.51 | 94 | 1016.7 |
| 20260906034315 | 18 | 51 | 0.0 | 0.0 | 0.00 | 0.51 | 0.51 | 94 | 1016.7 |
| 20260906033811 | 18 | 51 | 0.0 | 0.0 | 0.00 | 0.51 | 0.51 | 94 | 1016.7 |
| 20260906033310 | 18 | 51 | 0.0 | 0.0 | 0.00 | 0.51 | 0.51 | 94 | 1016.7 |
| 20260906032807 | 18 | 51 | 0.0 | 0.0 | 0.00 | 0.51 | 0.51 | 94 | 1016.7 |
| 20260906032305 | 18 | 51 | 0.0 | 0.0 | 0.00 | 0.51 | 0.51 | 94 | 1016.7 |
| 20260906031757 | 18 | 51 | 0.0 | 0.0 | 0.00 | 0.51 | 0.51 | 94 | 1016.7 |
| 20260906031253 | 18 | 52 | 0.0 | 0.0 | 0.00 | 0.51 | 0.51 | 94 | 1016.7 |
| 20260906030752 | 18 | 52 | 0.0 | 0.0 | 0.00 | 0.51 | 0.51 | 94 | 1016.7 |
| 20260906030248 | 18 | 52 | 0.0 | 0.0 | 0.00 | 0.51 | 0.51 | 94 | 1016.7 |
| 20260906025747 | 19 | 326 | 0.0 | 0.0 | 0.00 | 0.51 | 0.51 | 94 | 1016.7 |
| 20260906025242 | 19 | 326 | 0.0 | 0.0 | 0.00 | 0.51 | 0.51 | 93 | 1016.7 |
| 20260906024740 | 20 | 326 | 0.0 | 0.0 | 0.00 | 0.51 | 0.51 | 93 | 1016.7 |
| 20260906024239 | 20 | 326 | 0.0 | 0.0 | 0.00 | 0.51 | 0.51 | 93 | 1016.7 |
| 20260906023735 | 20 | 326 | 0.0 | 0.0 | 0.00 | 0.51 | 0.51 | 93 | 1016.7 |
| 20260906023230 | 20 | 326 | 0.0 | 0.0 | 0.00 | 0.51 | 0.51 | 93 | 1016.7 |
| 20260906022726 | 20 | 325 | 0.0 | 0.0 | 0.00 | 0.51 | 0.51 | 93 | 1016.4 |
| 20260906022221 | 20 | 272 | 0.0 | 0.0 | 0.00 | 0.51 | 0.51 | 92 | 1016.4 |
| 20260906021717 | 20 | 271 | 0.0 | 0.0 | 0.00 | 0.51 | 0.51 | 92 | 1016.1 |
| 20260906021216 | 20 | 34 | 0.0 | 0.0 | 0.00 | 0.51 | 0.51 | 92 | 1016.1 |
| 20260906020711 | 21 | 33 | 0.0 | 0.0 | 0.00 | 0.51 | 0.51 | 91 | 1015.6 |
| 20260906020206 | 21 | 34 | 0.0 | 8.0 | 0.00 | 0.51 | 0.51 | 91 | 1015.6 |
| 20260906015705 | 21 | 30 | 0.0 | 8.0 | 0.00 | 0.51 | 0.51 | 92 | 1015.3 |
| 20260906015159 | 21 | 156 | 0.0 | 0.0 | 0.00 | 0.51 | 0.51 | 91 | 1015.6 |
| 20260906014658 | 21 | 51 | 0.0 | 0.0 | 0.00 | 0.51 | 0.51 | 91 | 1015.6 |
| 20260906014155 | 21 | 89 | 0.0 | 0.0 | 0.00 | 0.51 | 0.51 | 91 | 1016.1 |
| 20260906013650 | 21 | 89 | 0.0 | 0.0 | 0.00 | 0.51 | 0.51 | 90 | 1015.6 |
| 20260906013140 | 21 | 89 | 0.0 | 0.0 | 0.00 | 0.51 | 0.51 | 90 | 1015.3 |
| 20260906012639 | 21 | 89 | 0.0 | 0.0 | 0.00 | 0.51 | 0.51 | 90 | 1015.6 |
| 20260906012134 | 21 | 89 | 0.0 | 9.7 | 0.00 | 0.51 | 0.51 | 89 | 1015.6 |
| 20260906011630 | 21 | 42 | 0.0 | 9.7 | 0.00 | 0.51 | 0.51 | 89 | 1015.6 |
| 20260906011124 | 21 | 33 | 1.6 | 9.7 | 0.00 | 0.51 | 0.51 | 90 | 1015.6 |
| 20260906010620 | 21 | 31 | 1.6 | 9.7 | 0.00 | 0.51 | 0.51 | 90 | 1015.6 |
| 20260906010116 | 21 | 41 | 1.6 | 9.7 | 0.00 | 0.51 | 0.51 | 90 | 1015.6 |
| 20260906005615 | 21 | 37 | 1.6 | 9.7 | 0.00 | 0.51 | 0.51 | 90 | 1015.6 |
| 20260906005114 | 21 | 51 | 3.2 | 8.0 | 0.00 | 0.51 | 0.51 | 90 | 1015.6 |
| 20260906004608 | 21 | 41 | 4.8 | 12.9 | 0.00 | 0.51 | 0.51 | 90 | 1015.6 |
| 20260906004103 | 21 | 41 | 3.2 | 12.9 | 0.00 | 0.51 | 0.51 | 90 | 1015.3 |
| 20260906003559 | 21 | 58 | 1.6 | 11.3 | 0.00 | 0.51 | 0.51 | 89 | 1015.3 |
| 20260906003054 | 21 | 32 | 0.0 | 3.2 | 0.00 | 0.51 | 0.51 | 89 | 1015.6 |
| 20260906002549 | 21 | 43 | 0.0 | 3.2 | 0.00 | 0.51 | 0.51 | 88 | 1015.3 |
| 20260906002043 | 21 | 328 | 0.0 | 0.0 | 0.00 | 0.51 | 0.51 | 87 | 1015.3 |
| 20260906001539 | 22 | 328 | 0.0 | 0.0 | 0.00 | 0.51 | 0.51 | 87 | 1015.3 |
| 20260906001039 | 22 | 328 | 0.0 | 0.0 | 0.00 | 0.51 | 0.51 | 86 | 1015.3 |
| 20260906000535 | 22 | 328 | 0.0 | 0.0 | 0.00 | 0.51 | 0.51 | 86 | 1015.3 |
| 20260906000030 | 22 | 328 | 0.0 | 0.0 | 0.00 | 0.51 | 0.51 | 85 | 1015.3 |
| 20260905235524 | 22 | 328 | 0.0 | 0.0 | 0.00 | 0.51 | 0.51 | 84 | 1015.3 |
| 20260905235019 | 23 | 328 | 0.0 | 0.0 | 0.00 | 0.51 | 0.51 | 84 | 1015.0 |
| 20260905234515 | 23 | 327 | 0.0 | 0.0 | 0.00 | 0.51 | 0.51 | 84 | 1015.0 |
| 20260905234014 | 23 | 328 | 0.0 | 0.0 | 0.00 | 0.51 | 0.51 | 84 | 1015.0 |
| 20260905233510 | 23 | 324 | 0.0 | 0.0 | 0.00 | 0.51 | 0.51 | 83 | 1015.0 |
| 20260905233009 | 23 | 332 | 0.0 | 0.0 | 0.00 | 0.51 | 0.51 | 83 | 1015.0 |
| 20260905232505 | 23 | 314 | 0.0 | 0.0 | 0.00 | 0.51 | 0.51 | 83 | 1015.0 |
| 20260905232000 | 23 | 314 | 0.0 | 0.0 | 0.00 | 0.51 | 0.51 | 82 | 1014.6 |
| 20260905231455 | 23 | 322 | 0.0 | 0.0 | 0.00 | 0.51 | 0.51 | 81 | 1015.0 |
| 20260905230952 | 23 | 335 | 0.0 | 4.8 | 0.00 | 0.51 | 0.51 | 80 | 1014.6 |
| 20260905230450 | 23 | 338 | 0.0 | 4.8 | 0.00 | 0.51 | 0.51 | 79 | 1014.6 |
| 20260905225943 | 24 | 322 | 0.0 | 0.0 | 0.00 | 0.51 | 0.51 | 79 | 1014.6 |
| 20260905225438 | 24 | 351 | 0.0 | 4.8 | 0.00 | 0.51 | 0.51 | 78 | 1014.3 |
| 20260905224933 | 24 | 304 | 0.0 | 4.8 | 0.00 | 0.51 | 0.51 | 78 | 1014.3 |
| 20260905224429 | 24 | 342 | 0.0 | 0.0 | 0.00 | 0.51 | 0.51 | 79 | 1014.3 |
| 20260905223928 | 24 | 343 | 0.0 | 4.8 | 0.00 | 0.51 | 0.51 | 78 | 1013.9 |
| 20260905223426 | 25 | 341 | 0.0 | 4.8 | 0.00 | 0.51 | 0.51 | 78 | 1014.3 |
| 20260905222926 | 25 | 1 | 0.0 | 1.6 | 0.00 | 0.51 | 0.51 | 78 | 1014.3 |
| 20260905222426 | 25 | 349 | 0.0 | 1.6 | 0.00 | 0.51 | 0.51 | 77 | 1014.3 |
| 20260905221922 | 25 | 307 | 0.0 | 0.0 | 0.00 | 0.51 | 0.51 | 77 | 1014.3 |
| 20260905221418 | 25 | 301 | 0.0 | 0.0 | 0.00 | 0.51 | 0.51 | 77 | 1014.3 |
| 20260905220915 | 25 | 312 | 0.0 | 0.0 | 0.00 | 0.51 | 0.51 | 76 | 1014.3 |
| 20260905220410 | 25 | 337 | 0.0 | 0.0 | 0.00 | 0.51 | 0.51 | 75 | 1014.3 |
| 20260905215909 | 25 | 329 | 0.0 | 0.0 | 0.00 | 0.51 | 0.51 | 78 | 1014.3 |
| 20260905215405 | 25 | 319 | 0.0 | 0.0 | 0.00 | 0.51 | 0.51 | 78 | 1013.9 |
| 20260905214901 | 25 | 4 | 0.0 | 3.2 | 0.00 | 0.51 | 0.51 | 80 | 1013.9 |
| 20260905214356 | 24 | 27 | 0.0 | 3.2 | 0.00 | 0.51 | 0.51 | 82 | 1013.9 |
| 20260905213850 | 23 | 330 | 0.0 | 1.6 | 0.00 | 0.51 | 0.51 | 80 | 1014.3 |
| 20260905213347 | 24 | 344 | 0.0 | 0.0 | 0.00 | 0.51 | 0.51 | 79 | 1014.3 |
| 20260905212842 | 24 | 340 | 0.0 | 0.0 | 0.00 | 0.51 | 0.51 | 78 | 1014.3 |
| 20260905212341 | 24 | 340 | 0.0 | 0.0 | 0.00 | 0.51 | 0.51 | 77 | 1014.3 |
| 20260905211836 | 25 | 341 | 0.0 | 0.0 | 0.00 | 0.51 | 0.51 | 77 | 1014.6 |
| 20260905211331 | 25 | 278 | 0.0 | 0.0 | 0.00 | 0.51 | 0.51 | 76 | 1014.6 |
| 20260905210827 | 25 | 328 | 0.0 | 8.0 | 0.00 | 0.51 | 0.51 | 76 | 1014.3 |
| 20260905210322 | 25 | 318 | 1.6 | 16.1 | 0.00 | 0.51 | 0.51 | 76 | 1014.3 |
| 20260905205821 | 25 | 210 | 1.6 | 16.1 | 0.00 | 0.51 | 0.51 | 77 | 1014.6 |
| 20260905205315 | 24 | 85 | 1.6 | 16.1 | 0.00 | 0.51 | 0.51 | 78 | 1013.2 |